| time (UTC) | temp C | wind direction | speed KPH | gust KPH | rain 1hr cm | rain 24hr cm | rain mn cm | humidity % | barometer mb |
| 20260504081536 | 14 | 234 | 30.6 | 40.2 | 0.00 | 0.00 | 0.00 | 49 | 994.8 |
| 20260504044602 | 12 | 229 | 9.7 | 19.3 | 0.00 | 0.00 | 0.00 | 52 | 998.9 |
| 20260504043055 | 11 | 247 | 8.0 | 17.7 | 0.00 | 0.00 | 0.00 | 53 | 999.2 |
| 20260504041600 | 11 | 257 | 9.7 | 17.7 | 0.00 | 0.00 | 0.00 | 52 | 999.5 |
| 20260504034503 | 12 | 255 | 9.7 | 17.7 | 0.00 | 0.00 | 0.00 | 50 | 1000.2 |
| 20260504033016 | 12 | 276 | 6.4 | 12.9 | 0.00 | 0.00 | 0.00 | 49 | 1000.5 |
| 20260504031516 | 12 | 234 | 4.8 | 12.9 | 0.00 | 0.00 | 0.00 | 49 | 1000.8 |
| 20260504030036 | 12 | 190 | 6.4 | 12.9 | 0.00 | 0.00 | 0.00 | 48 | 1001.2 |
| 20260504024545 | 12 | 197 | 4.8 | 11.3 | 0.00 | 0.03 | 0.00 | 50 | 1001.4 |
| 20260504023056 | 12 | 261 | 6.4 | 11.3 | 0.00 | 0.03 | 0.00 | 50 | 1001.5 |
| 20260504021518 | 13 | 283 | 6.4 | 11.3 | 0.00 | 0.03 | 0.00 | 48 | 1001.7 |
| 20260504020035 | 13 | 256 | 4.8 | 11.3 | 0.00 | 0.03 | 0.00 | 46 | 1001.9 |
| 20260504014551 | 15 | 231 | 3.2 | 9.7 | 0.00 | 0.03 | 0.00 | 43 | 1002.1 |
| 20260504013052 | 16 | 238 | 4.8 | 11.3 | 0.00 | 0.03 | 0.00 | 40 | 1002.4 |
| 20260504011559 | 17 | 229 | 1.6 | 11.3 | 0.00 | 0.03 | 0.00 | 38 | 1002.6 |
| 20260504004520 | 18 | 238 | 8.0 | 12.9 | 0.00 | 0.03 | 0.00 | 35 | 1002.9 |
| 20260504003024 | 19 | 261 | 8.0 | 14.5 | 0.00 | 0.03 | 0.00 | 33 | 1003.1 |
| 20260504001542 | 19 | 254 | 9.7 | 16.1 | 0.00 | 0.03 | 0.00 | 32 | 1003.4 |
| 20260504000038 | 20 | 266 | 12.9 | 22.5 | 0.00 | 0.03 | 0.00 | 31 | 1003.6 |
| 20260503234550 | 20 | 259 | 9.7 | 17.7 | 0.00 | 0.03 | 0.00 | 32 | 1003.7 |
| 20260503233052 | 20 | 276 | 11.3 | 19.3 | 0.00 | 0.03 | 0.00 | 32 | 1003.8 |
| 20260503231507 | 20 | 278 | 8.0 | 24.1 | 0.00 | 0.03 | 0.00 | 31 | 1003.8 |
| 20260503230004 | 21 | 257 | 9.7 | 19.3 | 0.00 | 0.03 | 0.00 | 29 | 1004.1 |
| 20260503224505 | 20 | 273 | 9.7 | 17.7 | 0.00 | 0.03 | 0.00 | 29 | 1004.2 |
| 20260503223005 | 20 | 253 | 11.3 | 22.5 | 0.00 | 0.03 | 0.00 | 29 | 1004.3 |
| 20260503221507 | 20 | 263 | 12.9 | 19.3 | 0.00 | 0.03 | 0.00 | 28 | 1004.5 |
| 20260503220038 | 20 | 282 | 6.4 | 19.3 | 0.00 | 0.03 | 0.00 | 31 | 1004.8 |
| 20260503214529 | 20 | 260 | 8.0 | 20.9 | 0.00 | 0.03 | 0.00 | 32 | 1005.0 |
| 20260503213045 | 20 | 288 | 8.0 | 25.7 | 0.00 | 0.03 | 0.00 | 30 | 1005.4 |
| 20260503211542 | 20 | 289 | 12.9 | 24.1 | 0.00 | 0.03 | 0.00 | 31 | 1005.6 |
| 20260503204558 | 19 | 346 | 9.7 | 29.0 | 0.00 | 0.03 | 0.00 | 35 | 1006.1 |
| 20260503203104 | 19 | 296 | 6.4 | 19.3 | 0.00 | 0.03 | 0.00 | 36 | 1006.3 |
| 20260503201501 | 18 | 293 | 9.7 | 17.7 | 0.00 | 0.03 | 0.00 | 36 | 1006.7 |
| 20260503200023 | 18 | 319 | 11.3 | 27.4 | 0.00 | 0.03 | 0.00 | 35 | 1007.0 |
| 20260503194542 | 18 | 300 | 11.3 | 20.9 | 0.00 | 0.03 | 0.00 | 36 | 1007.1 |
| 20260503193053 | 18 | 304 | 11.3 | 20.9 | 0.00 | 0.03 | 0.00 | 39 | 1007.4 |
| 20260503191557 | 18 | 294 | 12.9 | 22.5 | 0.00 | 0.03 | 0.00 | 38 | 1007.7 |
| 20260503190003 | 17 | 329 | 9.7 | 22.5 | 0.00 | 0.03 | 0.00 | 36 | 1007.8 |
| 20260503184506 | 17 | 306 | 12.9 | 24.1 | 0.00 | 0.03 | 0.00 | 36 | 1007.9 |
| 20260503183011 | 17 | 344 | 11.3 | 22.5 | 0.00 | 0.03 | 0.00 | 38 | 1008.4 |
| 20260503181515 | 17 | 5 | 14.5 | 22.5 | 0.00 | 0.03 | 0.00 | 39 | 1008.7 |
| 20260503180030 | 17 | 306 | 12.9 | 27.4 | 0.00 | 0.03 | 0.00 | 39 | 1008.7 |
| 20260503174534 | 16 | 289 | 12.9 | 25.7 | 0.00 | 0.03 | 0.00 | 43 | 1008.9 |
| 20260503173036 | 16 | 322 | 14.5 | 25.7 | 0.00 | 0.03 | 0.00 | 41 | 1009.2 |
| 20260503171542 | 16 | 339 | 19.3 | 30.6 | 0.00 | 0.03 | 0.00 | 42 | 1009.2 |